Rochester, Indiana, United States (46975)
Lat: 41.06N, Lon: 86.22W
Wx Zone: INZ015
Local Info
Past Weather Observations for Today

NOTE: This archive is for the closest National Weather Service station to Rochester. Information may differ from the station used for current weather conditions.

Click here for Long-term Archive

Time Weather Temperature Dewpoint Humidity Pressure Winds Precip Visibility
22:15
Clear
48°F / 9°C 46°F / 8°C 94% 30.12 in
(1020 mb)
Calm - 10SM
21:55
Clear
50°F / 10°C 48°F / 9°C 94% 30.12 in
(1020 mb)
Calm - 10SM
21:35
Clear
50°F / 10°C 48°F / 9°C 94% 30.12 in
(1020 mb)
Calm - 10SM
21:15
Clear
50°F / 10°C 48°F / 9°C 94% 30.12 in
(1020 mb)
Calm - 10SM
20:55
Clear
52°F / 11°C 48°F / 9°C 88% 30.12 in
(1020 mb)
Calm - 10SM
20:35
Partly Cloudy
54°F / 12°C 48°F / 9°C 82% 30.12 in
(1020 mb)
Calm - 10SM
20:15
Mostly Cloudy
52°F / 11°C 50°F / 10°C 94% 30.12 in
(1020 mb)
Calm - 10SM
19:55
Overcast
54°F / 12°C 48°F / 9°C 82% 30.12 in
(1020 mb)
Calm - 10SM
19:35
Mostly Cloudy
54°F / 12°C 50°F / 10°C 88% 30.09 in
(1019 mb)
Calm - 10SM
19:15
Partly Cloudy
54°F / 12°C 48°F / 9°C 82% 30.09 in
(1019 mb)
Calm - 10SM
18:55
Clear
57°F / 14°C 46°F / 8°C 67% 30.09 in
(1019 mb)
NW 3.5 mph
(NW 6 kph)
- 10SM
18:35
Clear
59°F / 15°C 46°F / 8°C 63% 30.09 in
(1019 mb)
NNW 4.6 mph
(NNW 7 kph)
- 10SM
18:15
Clear
61°F / 16°C 50°F / 10°C 68% 30.09 in
(1019 mb)
WNW 4.6 mph
(WNW 7 kph)
- 10SM
17:55
Clear
61°F / 16°C 46°F / 8°C 59% 30.09 in
(1019 mb)
Calm - 10SM
17:35
Clear
63°F / 17°C 45°F / 7°C 52% 30.12 in
(1020 mb)
W 4.6 mph
(W 7 kph)
- 10SM
17:15
Clear
63°F / 17°C 45°F / 7°C 52% 30.09 in
(1019 mb)
Calm - 10SM
16:55
Clear
63°F / 17°C 45°F / 7°C 52% 30.12 in
(1020 mb)
Calm - 10SM
16:35
Clear
64°F / 18°C 45°F / 7°C 49% 30.12 in
(1020 mb)
NW 3.5 mph
(NW 6 kph)
- 10SM
16:15
Clear
64°F / 18°C 46°F / 8°C 52% 30.12 in
(1020 mb)
NW 6.9 mph
(NW 11 kph)
- 10SM
15:55
Clear
63°F / 17°C 45°F / 7°C 52% 30.12 in
(1020 mb)
NW 9.2 mph
(NW 15 kph)
- 10SM
15:35
Clear
64°F / 18°C 45°F / 7°C 49% 30.12 in
(1020 mb)
SSW 8.1 mph
(SSW 13 kph)
- 10SM
15:15
Partly Cloudy
64°F / 18°C 45°F / 7°C 49% 30.12 in
(1020 mb)
NW 6.9 mph
(NW 11 kph)
- 10SM
14:55
Partly Cloudy
64°F / 18°C 45°F / 7°C 49% 30.12 in
(1020 mb)
NW 4.6 mph
(NW 7 kph)
- 10SM
14:35
Partly Cloudy
63°F / 17°C 43°F / 6°C 49% 30.15 in
(1021 mb)
NW 3.5 mph
(NW 6 kph)
- 10SM
14:15
Partly Cloudy
63°F / 17°C 43°F / 6°C 49% 30.15 in
(1021 mb)
NNW 3.5 mph
(NNW 6 kph)
- 10SM
13:55
Clear
64°F / 18°C 43°F / 6°C 46% 30.15 in
(1021 mb)
NNW 4.6 mph
(NNW 7 kph)
- 10SM
13:35
Clear
63°F / 17°C 43°F / 6°C 49% 30.15 in
(1021 mb)
SSW 3.5 mph
(SSW 6 kph)
- 10SM
13:15
Partly Cloudy
63°F / 17°C 41°F / 5°C 45% 30.15 in
(1021 mb)
Calm - 10SM
12:55
Mostly Cloudy
63°F / 17°C 43°F / 6°C 49% 30.15 in
(1021 mb)
SW 3.5 mph
(SW 6 kph)
- 10SM
12:35
Clear
63°F / 17°C 43°F / 6°C 49% 30.18 in
(1022 mb)
Calm - 10SM
12:15
Partly Cloudy
61°F / 16°C 43°F / 6°C 52% 30.18 in
(1022 mb)
N 5.8 mph
(N 9 kph)
- 10SM
11:55
Partly Cloudy
61°F / 16°C 43°F / 6°C 52% 30.18 in
(1022 mb)
Calm - 10SM
11:35
Clear
61°F / 16°C 45°F / 7°C 55% 30.18 in
(1022 mb)
NE 3.5 mph
(NE 6 kph)
- 10SM
11:15
Clear
59°F / 15°C 45°F / 7°C 59% 30.18 in
(1022 mb)
E 4.6 mph
(E 7 kph)
- 10SM
10:55
Clear
59°F / 15°C 45°F / 7°C 59% 30.18 in
(1022 mb)
NNW 3.5 mph
(NNW 6 kph)
- 10SM
10:35
Clear
59°F / 15°C 45°F / 7°C 59% 30.21 in
(1023 mb)
NNE 6.9 mph
(NNE 11 kph)
- 10SM
10:15
Clear
57°F / 14°C 46°F / 8°C 67% 30.21 in
(1023 mb)
ENE 5.8 mph
(ENE 9 kph)
- 10SM
09:55
Clear
55°F / 13°C 48°F / 9°C 77% 30.21 in
(1023 mb)
NNE 3.5 mph
(NNE 6 kph)
- 10SM
09:35
Clear
55°F / 13°C 50°F / 10°C 82% 30.21 in
(1023 mb)
NNE 5.8 mph
(NNE 9 kph)
- 10SM
09:15
Clear
54°F / 12°C 48°F / 9°C 82% 30.21 in
(1023 mb)
ENE 4.6 mph
(ENE 7 kph)
- 10SM
08:55
Clear
52°F / 11°C 50°F / 10°C 94% 30.21 in
(1023 mb)
Calm - 10SM
08:35
Partly Cloudy
50°F / 10°C 50°F / 10°C 100% 30.21 in
(1023 mb)
Calm - 10SM
08:15
Overcast
50°F / 10°C 50°F / 10°C 100% 30.21 in
(1023 mb)
Calm - 7SM
07:55
Overcast
50°F / 10°C 50°F / 10°C 100% 30.21 in
(1023 mb)
N 4.6 mph
(N 7 kph)
- 7SM
07:35
Overcast
Fog And Mist
50°F / 10°C 50°F / 10°C 100% 30.21 in
(1023 mb)
N 4.6 mph
(N 7 kph)
- 4SM
07:15
Overcast
Fog And Mist
48°F / 9°C 48°F / 9°C 100% 30.21 in
(1023 mb)
Calm - 3SM
06:55
Overcast
Fog And Mist
48°F / 9°C 48°F / 9°C 100% 30.21 in
(1023 mb)
Calm - 1 3/4SM
06:35
Overcast
Fog
46°F / 8°C 46°F / 8°C 100% 30.18 in
(1022 mb)
N 3.5 mph
(N 6 kph)
- 1/4SM
06:15
Overcast
Fog
45°F / 7°C 45°F / 7°C 100% 30.18 in
(1022 mb)
NNW 3.5 mph
(NNW 6 kph)
- 1/4SM
05:55
Overcast
Fog
45°F / 7°C 45°F / 7°C 100% 30.18 in
(1022 mb)
NW 3.5 mph
(NW 6 kph)
- 1/4SM
05:35
Obscured
Fog And Mist
46°F / 8°C 46°F / 8°C 100% 30.18 in
(1022 mb)
Calm - 1 1/4SM
05:15
Obscured
Fog And Mist
46°F / 8°C 46°F / 8°C 100% 30.15 in
(1021 mb)
Calm - 1 1/4SM
04:55
Clear
Fog And Mist
48°F / 9°C 46°F / 8°C 94% 30.15 in
(1021 mb)
Calm - 2 1/2SM
04:35
Clear
Fog And Mist
50°F / 10°C 48°F / 9°C 94% 30.15 in
(1021 mb)
Calm - 5SM
04:15
Partly Cloudy
50°F / 10°C 50°F / 10°C 100% 30.15 in
(1021 mb)
NNE 4.6 mph
(NNE 7 kph)
- 7SM
03:55
Mostly Cloudy
Fog And Mist
50°F / 10°C 50°F / 10°C 100% 30.15 in
(1021 mb)
N 6.9 mph
(N 11 kph)
- 4SM
03:35
Overcast
Fog And Mist
50°F / 10°C 50°F / 10°C 100% 30.15 in
(1021 mb)
N 6.9 mph
(N 11 kph)
- 3SM
03:15
Overcast
Fog And Mist
52°F / 11°C 52°F / 11°C 100% 30.15 in
(1021 mb)
N 6.9 mph
(N 11 kph)
- 1 3/4SM
02:55
Overcast
Fog
50°F / 10°C 50°F / 10°C 100% 30.15 in
(1021 mb)
NNE 6.9 mph
(NNE 11 kph)
- 1/2SM
02:35
Overcast
Fog And Mist
50°F / 10°C 50°F / 10°C 100% 30.15 in
(1021 mb)
Calm - 1SM
02:15
Overcast
Fog And Mist
52°F / 11°C 52°F / 11°C 100% 30.15 in
(1021 mb)
Calm - 1 1/2SM
01:55
Overcast
Fog And Mist
52°F / 11°C 52°F / 11°C 100% 30.15 in
(1021 mb)
Calm - 2 1/2SM
01:35
Overcast
Fog And Mist
52°F / 11°C 52°F / 11°C 100% 30.15 in
(1021 mb)
Calm - 3SM
01:15
Overcast
Fog And Mist
52°F / 11°C 52°F / 11°C 100% 30.15 in
(1021 mb)
NNW 3.5 mph
(NNW 6 kph)
- 4SM
00:55
Overcast
Fog And Mist
50°F / 10°C 50°F / 10°C 100% 30.15 in
(1021 mb)
Calm - 2 1/2SM
00:35
Overcast
Fog And Mist
52°F / 11°C 52°F / 11°C 100% 30.15 in
(1021 mb)
Calm - 1 1/2SM
00:15
Overcast
Fog
52°F / 11°C 52°F / 11°C 100% 30.15 in
(1021 mb)
Calm - 1/2SM
Time Weather Temperature Dewpoint Humidity Pressure Winds Precip Visibility


Weather for websites

WeatherForYou.com, LLC is not responsible for any damages or problems caused by this service. Current weather conditions are obtained from the closest station including government and personal stations which may have varying degrees of accuracy. Weather forecasts are derived from the NOAA NDFD. Like all things, this site belongs to Jesus Christ... He just trusts me to maintain it. If you have any questions or comments email webmaster@weatherforyou.com

Copyright © 2014, WeatherForYou.com LLC. All rights reserved.